Tracking 19149 objects as of 21-Apr-2018
HD Live streaming from Space Station
objects crossing your sky now

COSMOS 2251 DEB

Track COSMOS 2251 DEB now!
10-day predictions


NORAD ID: 35448
Int'l Code: 1993-036AKS
Perigee: 753.6 km
Apogee: 774.0 km
Inclination: 73.9 °
Period: 100.0 minutes
Semi major axis: 7134 km
RCS: 0.0138 m2 (small)
Launch date: June 16, 1993
Source: Commonwealth of Independent States (former USSR) (CIS)
Launch site: PLESETSK MISSILE AND SPACE COMPLEX (PKMTR)

Note: This is SATELLITE DEBRIS
aabbcc
Your satellite tracking list
Your tracking list is empty




NASA's NSSDC Master Catalog

Two Line Element Set (TLE):
1 35448U 93036AKS 18109.86454273  .00000356  00000-0  12021-3 0  9996
2 35448  73.9074 285.8495 0014296 324.0182  36.0009 14.40570356470687
Source of the keplerian elements: AFSPC